User: anonymous   Login
Location: Churchill
(58.7670°N, 94.1670°W)
Time: 21:37:35
(UTC-06:00)
Language:

Cosmos 2142 Rocket - Orbit

View from above orbital plane
View from above orbital plane
View from above satellite
View from above satellite

Ground track
Ground track

The orbit data is extracted from the following two-line orbital elements,

1 21231U 91029B   17020.68947626 +.00000069 +00000-0 +56016-4 0  9995
2 21231 082.9498 217.9189 0033917 282.5265 132.1654 13.75734611293241
Epoch (UTC): 20 January 2017 16:32:50
Eccentricity: 0.0033917
inclination: 82.9498°
perigee height: 954 km
apogee height: 1004 km
right ascension of ascending node: 217.9189°
argument of perigee: 282.5265°
revolutions per day: 13.75734611
mean anomaly at epoch: 132.1654°
orbit number at epoch: 29324

The dashed part of the orbit path shows where the satellite is in the earth's shadow,  

DLR